Wind_Speed
13 13 14 15 16 16 17 18 18 19 20 22 22 22 22 22 23 23 24 24 25 25 25 25 25 26 26 26 26 26 27 27 27 27 27 29 29 29
13 14 15 15 16 17 18 18 19 19 19 21 22 22 23 23 23 24 24 24 25 25 25 26 26 26 27 26 27 27 27 27 27 27 28 28 28 29
14 15 16 17 18 18 18 19 20 20 20 21 22 23 23 23 23 24 25 26 26 27 27 27 27 27 27 27 28 28 28 28 28 28 29 29 29 29
16 17 17 17 18 19 19 20 20 20 21 21 22 23 23 23 23 24 25 26 26 27 27 28 28 28 28 28 28 28 28 28 29 30 30 29 29 29
16 17 17 18 19 19 20 20 20 21 21 21 22 22 23 24 24 25 25 25 26 26 26 27 27 27 27 27 27 28 28 29 29 29 29 29 29 29
17 18 18 18 19 19 20 20 20 21 22 22 21 22 23 24 25 26 26 27 26 26 26 27 27 27 27 27 28 28 28 28 29 30 30 29 29 30
19 19 20 20 20 20 21 21 21 22 22 22 23 23 24 25 26 26 27 27 27 26 27 27 28 28 28 28 28 28 29 30 30 31 31 31 31 31
21 22 21 21 22 22 22 22 22 23 23 23 24 25 25 26 26 27 27 27 27 28 28 27 28 28 29 28 28 29 30 31 31 32 32 32 32 32
23 23 22 22 23 23 24 24 24 24 24 25 25 26 26 26 27 27 27 28 28 28 28 28 29 29 30 30 31 31 32 32 32 32 32 32 33 33
24 25 25 24 24 25 25 25 25 25 25 26 26 26 27 27 27 28 28 28 28 28 29 29 30 31 31 31 32 32 32 32 32 32 33 33 33 33
27 28 27 27 27 27 27 26 27 27 27 26 27 27 28 28 29 29 29 29 29 29 30 30 30 30 30 30 31 31 32 33 33 34 34 35 35 35
29 29 29 29 29 29 28 28 28 28 28 28 28 29 29 29 30 30 31 31 31 31 31 31 31 31 31 31 32 32 33 34 34 34 35 35 35 35
31 31 31 31 30 29 29 29 29 29 30 30 30 30 31 31 32 32 32 32 32 32 32 32 32 32 32 32 33 33 34 35 35 35 35 35 35 35
33 33 33 32 30 30 30 30 30 30 31 32 32 32 32 33 33 33 33 33 33 33 33 34 34 34 34 35 35 35 35 36 36 36 36 36 36 36
35 35 34 32 31 31 31 32 32 33 33 33 34 34 34 35 35 34 34 34 34 34 34 35 35 35 35 36 36 36 37 37 37 37 37 37 37 37
36 35 34 33 33 33 33 33 34 34 34 34 35 35 35 35 35 35 35 35 35 35 35 35 36 36 36 37 37 37 37 38 38 37 37 37 38 38
36 36 35 35 35 35 35 35 35 35 35 35 35 36 36 36 37 37 37 37 36 36 36 36 36 36 37 37 38 38 39 38 38 38 38 38 38 38
36 35 35 35 35 36 36 36 36 37 38 38 38 38 38 38 38 38 38 38 38 38 37 37 37 37 38 38 38 38 38 39 39 39 39 39 39 39
37 36 35 35 36 36 36 36 37 37 38 38 39 39 38 38 38 38 38 39 38 38 38 38 38 38 38 38 38 38 38 38 39 38 38 38 39 39
36 36 36 36 37 37 37 37 38 38 38 38 38 38 38 38 39 39 39 39 39 38 38 38 37 38 38 38 38 38 38 38 38 38 37 37 37 37
36 36 37 38 38 38 38 38 38 38 38 38 38 38 38 38 38 39 38 38 37 38 38 38 38 38 38 38 38 38 38 38 38 38 38 38 37 37
38 38 38 38 38 38 39 39 38 38 38 38 38 38 38 38 39 39 39 38 38 37 37 38 37 38 38 38 38 38 38 38 38 38 38 37 37 36
37 37 37 37 37 38 38 38 37 37 37 38 38 38 38 38 39 39 39 38 37 37 37 37 37 37 37 37 37 37 37 37 38 38 37 36 35 34
Wind_Direction
302 300 298 297 296 295 294 292 291 289 290 288 286 285 283 281 280 281 281 280 278 277 277 277 277 276 275 275 275 277 277 279 280 280 281 281 279 278
310 307 304 302 300 298 297 294 294 294 292 291 287 285 284 283 282 283 283 281 281 280 278 277 277 277 276 276 275 277 277 277 279 281 284 283 281 280
308 307 306 304 302 302 300 297 295 294 292 291 289 285 285 285 285 285 284 282 281 279 277 277 276 276 277 277 277 277 277 277 281 283 283 283 283 281
309 307 304 304 303 301 300 300 299 298 296 294 292 288 285 286 286 287 286 285 282 279 277 277 276 277 276 276 276 276 277 278 280 282 283 283 280 279
311 310 307 305 304 302 301 301 300 300 297 295 294 291 288 287 287 288 287 287 286 284 280 278 279 279 278 277 276 277 277 278 280 282 283 283 282 280
310 310 309 308 307 306 304 303 302 301 299 297 295 294 293 290 287 286 287 287 286 286 283 281 280 281 281 280 278 278 279 280 281 282 283 283 282 282
310 310 311 311 310 307 305 304 303 301 300 298 297 296 295 293 290 289 288 287 285 285 284 282 281 280 281 280 280 279 280 281 281 281 282 282 282 281
308 309 309 310 311 309 306 304 303 303 300 298 298 296 295 294 292 291 290 288 285 284 284 284 284 282 280 280 281 280 281 282 282 282 281 281 281 280
302 304 305 306 307 308 306 305 303 302 300 299 298 297 296 295 294 292 291 289 287 285 284 284 283 283 282 281 281 281 282 282 282 282 281 281 281 280
298 300 301 301 302 304 303 302 301 301 300 299 297 297 297 296 294 293 292 291 288 287 286 286 284 283 282 282 282 282 283 283 283 282 282 281 280 280
294 296 298 298 299 300 300 300 299 298 298 298 296 296 296 296 295 294 293 291 289 287 286 286 286 285 285 285 284 285 284 285 285 284 283 283 282 282
293 294 296 296 295 296 296 297 298 298 296 296 295 296 296 295 295 295 293 292 290 288 287 286 285 285 285 285 286 285 285 286 287 286 285 284 284 284
291 293 294 295 293 293 294 295 296 297 296 295 294 294 295 295 295 294 293 291 290 289 288 286 286 285 285 285 286 286 287 286 286 286 285 285 284 284
290 290 292 292 290 290 292 294 295 295 296 295 294 294 294 294 294 293 292 291 290 290 289 288 287 287 287 286 286 286 286 287 287 287 287 287 285 283
289 289 289 290 290 290 291 292 293 294 294 294 293 293 293 293 293 292 291 290 289 288 288 288 288 287 287 287 287 287 287 287 287 287 287 287 286 285
288 288 288 288 289 289 289 290 291 291 292 293 293 292 292 292 292 292 292 290 289 288 288 288 288 288 287 288 288 288 287 287 286 286 286 286 286 286
289 287 287 289 289 288 289 288 289 291 292 292 292 292 292 292 292 291 291 291 290 289 289 288 288 288 288 289 289 289 289 288 287 287 287 286 285 285
288 289 288 289 289 289 288 289 290 291 291 292 292 292 292 292 292 292 292 291 290 289 289 288 288 288 289 289 290 290 289 288 288 288 287 286 285 285
284 286 287 288 288 288 289 289 291 292 292 292 292 292 292 292 292 292 292 291 290 289 288 289 289 288 288 289 289 289 289 288 288 288 287 286 285 285
284 284 286 288 289 289 289 289 290 290 291 291 292 292 292 292 292 292 292 292 291 290 290 290 289 289 288 288 288 288 288 288 288 288 288 287 286 286
283 284 286 287 289 289 289 290 289 289 290 290 291 291 291 292 292 292 292 292 292 292 292 291 290 289 289 288 288 288 288 288 288 287 287 286 286 286
283 284 285 287 288 288 289 289 289 289 289 289 290 290 291 292 292 293 292 292 292 291 291 291 290 289 289 289 289 288 288 288 288 288 287 286 285 285
284 284 285 286 287 288 288 288 288 288 288 289 289 290 291 292 292 292 292 291 291 291 292 292 291 290 290 290 290 290 290 290 290 290 289 288 286 285
Height
5872 5870 5869 5868 5867 5865 5864 5862 5862 5860 5859 5857 5856 5855 5854 5853 5852 5851 5851 5850 5849 5848 5847 5846 5845 5844 5843 5843 5842 5841 5840 5839 5838 5837 5836 5834 5833 5832
5869 5867 5866 5864 5863 5861 5859 5858 5857 5856 5854 5852 5851 5849 5848 5847 5846 5845 5844 5843 5842 5841 5840 5839 5838 5837 5836 5836 5835 5834 5833 5832 5831 5830 5828 5827 5826 5825
5866 5865 5863 5861 5859 5857 5855 5854 5852 5850 5849 5847 5845 5843 5842 5841 5840 5839 5837 5836 5835 5834 5833 5832 5831 5830 5829 5829 5828 5826 5826 5824 5823 5822 5821 5819 5818 5817
5863 5861 5859 5857 5855 5853 5851 5849 5847 5845 5843 5842 5840 5838 5836 5835 5833 5832 5831 5829 5828 5827 5826 5825 5823 5822 5822 5821 5820 5819 5818 5817 5816 5815 5813 5812 5811 5810
5859 5857 5855 5853 5850 5848 5846 5844 5842 5840 5838 5836 5834 5832 5831 5829 5827 5826 5824 5823 5821 5819 5818 5817 5816 5815 5814 5813 5812 5811 5810 5809 5808 5807 5805 5804 5803 5802
5855 5853 5851 5848 5846 5843 5841 5839 5837 5834 5832 5830 5828 5826 5824 5822 5821 5819 5818 5816 5814 5813 5811 5810 5809 5807 5806 5805 5804 5803 5802 5801 5800 5799 5797 5796 5795 5793
5851 5849 5846 5843 5841 5839 5836 5834 5831 5829 5827 5824 5822 5820 5818 5816 5814 5812 5810 5809 5807 5805 5804 5803 5801 5800 5799 5798 5796 5795 5794 5793 5792 5790 5789 5788 5786 5785
5846 5844 5841 5838 5836 5833 5831 5828 5826 5823 5821 5818 5816 5814 5812 5810 5807 5805 5803 5802 5800 5799 5797 5795 5794 5792 5791 5789 5788 5787 5786 5784 5783 5782 5780 5779 5778 5776
5840 5838 5835 5833 5830 5828 5825 5822 5820 5817 5815 5812 5810 5807 5805 5803 5801 5798 5796 5794 5792 5791 5789 5787 5786 5784 5782 5781 5780 5778 5777 5775 5774 5772 5771 5770 5768 5767
5834 5831 5829 5826 5823 5821 5819 5816 5813 5811 5808 5806 5803 5801 5798 5796 5793 5791 5789 5787 5785 5783 5781 5780 5778 5776 5774 5772 5771 5769 5768 5766 5765 5763 5762 5760 5759 5758
5827 5824 5822 5819 5816 5814 5811 5809 5806 5804 5801 5799 5796 5794 5791 5789 5786 5784 5782 5779 5777 5775 5773 5771 5769 5768 5766 5764 5762 5760 5759 5757 5755 5754 5752 5751 5749 5747
5819 5816 5814 5811 5809 5806 5804 5801 5799 5796 5793 5791 5788 5786 5784 5781 5778 5776 5774 5771 5769 5767 5765 5763 5761 5759 5757 5756 5753 5751 5750 5748 5746 5744 5742 5740 5739 5737
5810 5808 5805 5802 5800 5798 5796 5793 5790 5788 5785 5783 5780 5778 5775 5773 5770 5767 5765 5763 5760 5758 5756 5754 5752 5750 5748 5747 5745 5742 5740 5738 5736 5734 5732 5730 5728 5727
5801 5799 5796 5793 5791 5789 5787 5784 5782 5779 5777 5774 5771 5769 5766 5764 5761 5758 5756 5753 5751 5749 5747 5745 5743 5741 5739 5737 5735 5733 5730 5728 5726 5724 5721 5719 5717 5715
5791 5789 5787 5784 5782 5780 5778 5775 5773 5770 5767 5765 5762 5759 5757 5754 5751 5748 5746 5744 5741 5739 5737 5735 5733 5730 5728 5726 5724 5722 5719 5717 5715 5713 5710 5708 5706 5704
5781 5779 5777 5775 5773 5770 5768 5766 5763 5761 5758 5755 5752 5749 5746 5744 5741 5738 5736 5733 5731 5729 5726 5724 5722 5720 5717 5715 5713 5710 5708 5706 5704 5701 5699 5697 5694 5692
5770 5768 5766 5764 5762 5759 5757 5755 5753 5750 5747 5744 5741 5739 5736 5733 5730 5727 5725 5722 5720 5718 5715 5713 5711 5708 5706 5704 5701 5699 5696 5694 5691 5689 5687 5685 5682 5680
5760 5758 5756 5753 5751 5749 5746 5744 5742 5739 5736 5733 5731 5728 5725 5722 5719 5717 5714 5711 5709 5706 5704 5702 5700 5697 5695 5692 5690 5687 5685 5682 5680 5677 5675 5672 5670 5668
5749 5747 5745 5743 5740 5738 5736 5733 5731 5728 5725 5722 5719 5716 5714 5711 5708 5706 5703 5700 5698 5695 5693 5690 5688 5685 5683 5681 5678 5675 5673 5670 5668 5665 5662 5660 5658 5656
5737 5736 5734 5732 5730 5727 5725 5722 5719 5717 5714 5711 5708 5706 5703 5700 5697 5695 5692 5689 5686 5684 5681 5678 5676 5673 5671 5669 5666 5664 5660 5658 5655 5653 5650 5648 5646 5643
5726 5725 5723 5721 5718 5716 5713 5711 5708 5705 5702 5700 5697 5695 5692 5689 5686 5683 5680 5677 5675 5672 5669 5666 5664 5661 5658 5656 5654 5651 5648 5645 5642 5640 5637 5635 5633 5631
5716 5714 5711 5709 5707 5704 5702 5699 5696 5694 5691 5689 5686 5683 5681 5678 5675 5672 5669 5666 5663 5660 5657 5654 5651 5648 5646 5643 5641 5638 5636 5633 5630 5627 5625 5623 5620 5618
5704 5702 5700 5698 5695 5693 5690 5687 5685 5682 5680 5678 5675 5672 5670 5667 5664 5661 5658 5654 5652 5649 5646 5643 5640 5637 5634 5631 5629 5626 5623 5621 5618 5615 5613 5610 5608 5607